Billings, MT

5:19 AM MDT on April 20, 2018 (GMT -0600)
Billings Logan International

Weather History for KBIL - October, 2013

Change the Weather History Date:

Sunday, October 27, 2013

  Actual Average Record
Temperature  
Mean Temperature 47 °F 44 °F  
Max Temperature 60 °F 55 °F 82 °F (1983)
Min Temperature 34 °F 34 °F 16 °F (1991)
Degree Days  
Heating Degree Days 18 21  
Month to date heating degree days 501 435  
Since 1 July heating degree days 615 664  
Cooling Degree Days 0 0  
Month to date cooling degree days 0 0  
Year to date cooling degree days 840 633  
Moisture  
Dew Point 31 °F    
Average Humidity 55    
Maximum Humidity 82    
Minimum Humidity 28    
Precipitation  
Precipitation 0.00 in 0.03 in 0.98 in (1940)
Month to date precipitation 2.29 1.07  
Year to date precipitation 14.10 12.42  
Snow  
Snow 0.00 in 0.20 in 7.20 in (1991)
Month to date snowfall 0.3 3.5  
Since 1 July snowfall 0.3 4.6  
Since 1 September snowfall 0.3 4.6  
Snow Depth 0.00 in    
Sea Level Pressure  
Sea Level Pressure 29.92 in    
Wind  
Wind Speed 15 mph (ENE)    
Max Wind Speed 30 mph    
Max Gust Speed 38 mph    
Visibility 10 miles    
Events      
T = Trace of Precipitation, MM = Missing Value Source: NWS Daily Summary

Daily Weather History Graph

Daily Weather History Graph

Search for Another Location

Airport or City:

Astronomy

Oct. 27, 2013 Rise Set
Actual Time 7:47 AM MDT 6:07 PM MDT
Civil Twilight 7:16 AM MDT 6:38 PM MDT
Nautical Twilight 6:41 AM MDT 7:13 PM MDT
Astronomical Twilight 6:07 AM MDT 7:47 PM MDT
Moon 12:27 AM MDT (10/27) 2:37 PM MDT (10/27)
Length of Visible Light 11h 21m
Length of Day
10h 19m
Last Quarter, 43% of the Moon is Illuminated
Oct 27
Last Quarter
Nov 3
New
Nov 9
First Quarter
Nov 17
Full
Nov 25
Last Quarter

Hourly Weather History & Observations

Time (MDT) Temp. Windchill Dew Point Humidity Pressure Visibility Wind Dir Wind Speed Gust Speed Precip Events Conditions
12:53 AM 51.1 °F - 32.0 °F 48% 29.93 in 10.0 mi SW 10.4 mph - N/A   Clear
1:53 AM 46.9 °F - 33.1 °F 59% 29.93 in 10.0 mi SW 12.7 mph - N/A   Clear
2:53 AM 46.9 °F - 33.1 °F 59% 29.90 in 10.0 mi SW 15.0 mph - N/A   Clear
3:53 AM 46.9 °F - 32.0 °F 56% 29.88 in 10.0 mi SW 11.5 mph - N/A   Clear
4:53 AM 45.0 °F 38.5 °F 32.0 °F 60% 29.87 in 10.0 mi SW 13.8 mph - N/A   Clear
5:53 AM 45.0 °F 38.2 °F 32.0 °F 60% 29.86 in 10.0 mi SW 15.0 mph - N/A   Clear
6:53 AM 45.0 °F 39.3 °F 30.9 °F 58% 29.86 in 10.0 mi WSW 11.5 mph - N/A   Clear
7:53 AM 43.0 °F 37.7 °F 30.0 °F 60% 29.86 in 10.0 mi West 9.2 mph - N/A   Clear
8:53 AM 43.0 °F 38.2 °F 32.0 °F 65% 29.87 in 10.0 mi SW 8.1 mph - N/A   Clear
9:53 AM 45.0 °F 39.7 °F 33.1 °F 63% 29.86 in 10.0 mi SW 10.4 mph - N/A   Clear
10:53 AM 50.0 °F - 32.0 °F 50% 29.84 in 10.0 mi SW 6.9 mph - N/A   Clear
11:53 AM 55.0 °F - 33.1 °F 43% 29.83 in 10.0 mi SE 4.6 mph - N/A   Clear
12:53 PM 57.9 °F - 28.9 °F 33% 29.82 in 10.0 mi ENE 8.1 mph - N/A   Clear
1:53 PM 59.0 °F - 28.0 °F 31% 29.82 in 10.0 mi ENE 10.4 mph - N/A   Clear
2:53 PM 59.0 °F - 28.0 °F 31% 29.82 in 10.0 mi ENE 12.7 mph - N/A   Partly Cloudy
3:53 PM 59.0 °F - 27.0 °F 29% 29.83 in 10.0 mi ENE 15.0 mph - N/A   Partly Cloudy
4:53 PM 55.9 °F - 30.0 °F 37% 29.87 in 10.0 mi ENE 17.3 mph - N/A   Partly Cloudy
5:53 PM 52.0 °F - 32.0 °F 47% 29.91 in 10.0 mi NE 18.4 mph - N/A   Partly Cloudy
6:53 PM 46.9 °F - 32.0 °F 56% 29.97 in 10.0 mi NE 19.6 mph - N/A   Partly Cloudy
7:53 PM 43.0 °F 34.0 °F 30.9 °F 62% 30.01 in 10.0 mi NNE 21.9 mph 32.2 mph N/A   Clear
8:53 PM 39.9 °F 30.0 °F 30.0 °F 68% 30.06 in 10.0 mi NE 21.9 mph 28.8 mph N/A   Clear
9:35 PM 37.9 °F 25.9 °F 28.9 °F 70% 30.06 in 10.0 mi NE 28.8 mph 34.5 mph N/A   Mostly Cloudy
9:53 PM 37.0 °F 25.6 °F 28.9 °F 73% 30.12 in 10.0 mi NE 24.2 mph 32.2 mph N/A   Overcast
10:53 PM 35.1 °F 22.5 °F 28.0 °F 76% 30.13 in 10.0 mi NNE 26.5 mph 38.0 mph N/A   Overcast
11:53 PM 34.0 °F 21.8 °F 28.0 °F 79% 30.14 in 10.0 mi NE 23.0 mph - N/A   Overcast